Messwerte Puerto Plata

Temperatur

Temperatur
°C
1656640800 22.00 22.00 27
1656644400 23.00 23.00 26
1656648000 0.00 0.00
1656651600 1.00 1.00
1656655200 2.00 2.00 25
1656658800 3.00 3.00
1656662400 4.00 4.00
1656666000 5.00 5.00 24
1656669600 6.00 6.00
1656673200 7.00 7.00 25
1656676800 8.00 8.00 26
1656680400 9.00 9.00 29
1656684000 10.00 10.00 30
1656687600 11.00 11.00 30
1656691200 12.00 12.00 32
1656694800 13.00 13.00 32
1656698400 14.00 14.00 32
1656702000 15.00 15.00
1656705600 16.00 16.00
1656709200 17.00 17.00 31
1656712800 18.00 18.00 29
1656716400 19.00 19.00 28
1656720000 20.00 20.00 27
1656723600 21.00 21.00 27

Aktuellste Messwerte

Wettercharakter
Wetter: freundlich
Temperatur
27 °C
Feuchtigkeit
85 %
Wind
20 km/hWindrichtung: Ost
Luftdruck
1015 hPa
Messzeit: 1. Juli 2022, 21.00Datenquelle: METAR

Weitere Messstationen in der Nähe

Messstation Temperatur Entfernung
Santiago de los Caballeros 26 °C 37 km
Dr Joaquin Balaguer Intl 25 °C 144 km
Boca Chica 26 °C 173 km
Santa Cruz de Barahona - 182 km
Port-au-Prince 29 °C 226 km
La Romana 27 °C 229 km
Punta Cana 27 °C 264 km

Wind

Windrichtung Böen Mittelwind
° km/h km/h
1656640800 22.00 21.00 - 22.00 0
1656644400 23.00 22.00 - 23.00 0
1656648000 0.00 23.00 - 0.00
1656651600 1.00 0.00 - 1.00
1656655200 2.00 1.00 - 2.00 0
1656658800 3.00 2.00 - 3.00
1656662400 4.00 3.00 - 4.00
1656666000 5.00 4.00 - 5.00 0
1656669600 6.00 5.00 - 6.00
1656673200 7.00 6.00 - 7.00 0
1656676800 8.00 7.00 - 8.00 0
1656680400 9.00 8.00 - 9.00 100° 20
1656684000 10.00 9.00 - 10.00 100° 15
1656687600 11.00 10.00 - 11.00 90° 20
1656691200 12.00 11.00 - 12.00 70° 25
1656694800 13.00 12.00 - 13.00 90° 30
1656698400 14.00 13.00 - 14.00 60° 20
1656702000 15.00 14.00 - 15.00 60° 20
1656705600 16.00 15.00 - 16.00 80° 25
1656709200 17.00 16.00 - 17.00 60° 20
1656712800 18.00 17.00 - 18.00 80° 20
1656716400 19.00 18.00 - 19.00 70° 25
1656720000 20.00 19.00 - 20.00 0
1656723600 21.00 20.00 - 21.00 100° 20

Ihre Wetterstation

Fehlt Ihre Wetterstation auf unserem Portal?

Schreiben Sie an network@meteonews.ch

Klima

Wann ist es am wärmsten? Wann regnet es am wenigsten? Unsere Klimadaten geben Auskunft.